This is the latest recevied weather packets stored in our database for station/object K5DLF-13. If no packets are shown the sender has not sent any weather packets the latest 10 day(s).
| Time | Temp. | Humidity | Pressure | Rain* | Wind** | Luminosity | Snow |
|---|---|---|---|---|---|---|---|
| 1777733105 | 17.22° C | 83% | 1017.2 hPa | 0 mm | - | 548 W/m² | - |
| 1777732805 | 16.67° C | 84% | 1017.2 hPa | 0 mm | - | 461 W/m² | - |
| 1777732505 | 16.67° C | 87% | 1017.4 hPa | 0 mm | - | 383 W/m² | - |
| 1777732205 | 16.11° C | 87% | 1017.3 hPa | 0 mm | - | 455 W/m² | - |
| 1777731905 | 15.56° C | 87% | 1017.2 hPa | 0 mm | - | 190 W/m² | - |
| 1777731605 | 15.56° C | 87% | 1017.1 hPa | 0 mm | - | 158 W/m² | - |
| 1777731305 | 15.56° C | 88% | 1017 hPa | 0 mm | - | 304 W/m² | - |
| 1777731005 | 15° C | 89% | 1017 hPa | 0 mm | - | 109 W/m² | - |
| 1777730705 | 15° C | 90% | 1017 hPa | 0 mm | - | 54 W/m² | - |
| 1777730405 | 15° C | 90% | 1017 hPa | 0 mm | - | 53 W/m² | - |
| 1777730105 | 14.44° C | 90% | 1016.9 hPa | 0 mm | - | 54 W/m² | - |
| 1777729805 | 14.44° C | 91% | 1016.8 hPa | 0 mm | - | 63 W/m² | - |
| 1777729505 | 14.44° C | 91% | 1016.7 hPa | 0 mm | - | 49 W/m² | - |
| 1777729205 | 14.44° C | 92% | 1016.7 hPa | 0 mm | - | 47 W/m² | - |
| 1777728905 | 13.89° C | 92% | 1016.7 hPa | 0 mm | - | 46 W/m² | - |
| 1777728605 | 13.89° C | 92% | 1016.5 hPa | 0 mm | - | 46 W/m² | - |
| 1777728305 | 13.89° C | 92% | 1016.4 hPa | 0 mm | - | 42 W/m² | - |
| 1777728005 | 13.89° C | 93% | 1016.3 hPa | 0 mm | - | 40 W/m² | - |
| 1777727705 | 13.33° C | 93% | 1016.2 hPa | 0 mm | - | 40 W/m² | - |
| 1777727405 | 13.33° C | 93% | 1016.1 hPa | 0 mm | - | 39 W/m² | - |
| 1777727105 | 13.33° C | 93% | 1016 hPa | 0 mm | - | 37 W/m² | - |
| 1777726805 | 13.33° C | 93% | 1016.1 hPa | 0 mm | - | 37 W/m² | - |
| 1777726505 | 12.78° C | 93% | 1016 hPa | 0 mm | - | 35 W/m² | - |
| 1777726205 | 12.78° C | 93% | 1015.9 hPa | 0 mm | - | 35 W/m² | - |
| 1777725905 | 12.78° C | 93% | 1015.8 hPa | 0 mm | - | 32 W/m² | - |
* Rain latest hour (hover to see other rain measurements)
** Current wind speed in m/s (hover to see current wind gust speed)